DW2227 Weather Reports


Display with metric or nautical units.
time (UTC)temp
F
wind
direction
speed
MPH
gust
MPH
rain 1hr
in
rain 24hr
in
rain mn
in
humidity
%
barometer
mb
20260506210835 55 302 3.0 6.0 0.00 0.00 0.00 38 1015.5
20260506210319 55 313 1.0 6.0 0.00 0.00 0.00 38 1015.6
20260506205823 55 274 1.0 6.0 0.00 0.00 0.00 38 1015.7
20260506205325 56 334 2.0 7.0 0.00 0.00 0.00 38 1015.8
20260506204849 56 296 2.0 9.0 0.00 0.00 0.00 36 1015.8
20260506204331 56 298 3.0 9.0 0.00 0.00 0.00 38 1015.8
20260506203834 55 232 1.0 11.0 0.00 0.00 0.00 38 1015.8
20260506203355 55 227 2.0 11.0 0.00 0.00 0.00 41 1016.0
20260506202851 56 323 3.0 11.0 0.00 0.00 0.00 36 1015.9
20260506202334 55 344 3.0 6.0 0.00 0.00 0.00 37 1016.0
20260506201817 55 13 3.0 6.0 0.00 0.00 0.00 36 1015.9
20260506201320 56 310 2.0 6.0 0.00 0.00 0.00 39 1015.9
20260506200825 56 307 2.0 6.0 0.00 0.00 0.00 39 1016.0
20260506200328 56 326 2.0 6.0 0.00 0.00 0.00 35 1016.0
20260506195831 57 223 2.0 6.0 0.00 0.00 0.00 35 1016.0
20260506195335 57 312 2.0 7.0 0.00 0.00 0.00 39 1015.7
20260506194838 56 207 1.0 7.0 0.00 0.00 0.00 39 1015.8
20260506194320 56 298 1.0 7.0 0.00 0.00 0.00 37 1015.9
20260506193824 56 265 2.0 8.0 0.00 0.00 0.00 34 1015.8
20260506193323 57 334 4.0 8.0 0.00 0.00 0.00 35 1015.9
20260506192840 57 348 3.0 8.0 0.00 0.00 0.00 37 1015.8
20260506192323 56 318 3.0 7.0 0.00 0.00 0.00 37 1015.9
20260506191827 55 211 3.0 7.0 0.00 0.00 0.00 39 1015.8
20260506191352 55 296 1.0 8.0 0.00 0.00 0.00 38 1015.8
20260506190835 56 355 2.0 7.0 0.00 0.00 0.00 37 1015.9
20260506190341 56 248 3.0 7.0 0.00 0.00 0.00 37 1015.9
20260506185824 56 298 2.0 8.0 0.00 0.00 0.00 36 1015.9
20260506185328 56 216 2.0 7.0 0.00 0.00 0.00 39 1015.9
20260506184830 56 346 1.0 3.0 0.00 0.00 0.00 37 1015.9
20260506184333 56 286 1.0 8.0 0.00 0.00 0.00 39 1015.9
20260506183837 56 311 2.0 8.0 0.00 0.00 0.00 36 1015.9
20260506183317 57 217 2.0 7.0 0.00 0.00 0.00 37 1015.9
20260506182839 56 333 2.0 9.0 0.00 0.00 0.00 40 1015.9
20260506182344 56 333 4.0 9.0 0.00 0.00 0.00 37 1016.0
20260506181825 56 230 2.0 9.0 0.00 0.00 0.00 42 1015.9
20260506181329 55 250 3.0 7.0 0.00 0.00 0.00 41 1015.9
20260506180833 55 259 1.0 12.0 0.00 0.00 0.00 40 1016.1
20260506180336 55 292 3.0 12.0 0.00 0.00 0.00 40 1015.9
20260506175818 54 338 3.0 11.0 0.00 0.00 0.00 38 1016.0
20260506175323 54 308 2.0 9.0 0.00 0.00 0.00 39 1016.0
20260506174825 55 360 3.0 10.0 0.00 0.00 0.00 35 1016.1
20260506174328 56 360 3.0 8.0 0.00 0.00 0.00 36 1016.0
20260506173831 56 360 2.0 8.0 0.00 0.00 0.00 38 1016.0
20260506173333 56 360 2.0 8.0 0.00 0.00 0.00 38 1016.1
20260506172835 55 360 3.0 5.0 0.00 0.00 0.00 38 1016.1
20260506172318 55 360 2.0 6.0 0.00 0.00 0.00 36 1016.2
20260506171818 55 360 2.0 7.0 0.00 0.00 0.00 42 1016.1
20260506171340 55 360 3.0 7.0 0.00 0.00 0.00 37 1016.0
20260506170823 54 17 2.0 7.0 0.00 0.00 0.00 38 1016.0
20260506170328 54 360 3.0 7.0 0.00 0.00 0.00 40 1016.2
20260506165832 55 360 2.0 8.0 0.00 0.00 0.00 37 1016.3
20260506165335 56 360 3.0 8.0 0.00 0.00 0.00 34 1016.1
20260506164837 55 360 1.0 7.0 0.00 0.00 0.00 38 1016.0
20260506164321 55 360 1.0 7.0 0.00 0.00 0.00 41 1016.1
20260506163846 56 360 2.0 7.0 0.00 0.00 0.00 36 1016.0
20260506163326 55 360 1.0 5.0 0.00 0.00 0.00 44 1016.2
20260506162851 55 360 2.0 6.0 0.00 0.00 0.00 36 1016.0
20260506162329 54 328 2.0 8.0 0.00 0.00 0.00 37 1016.2
20260506161833 53 306 2.0 8.0 0.00 0.00 0.00 39 1016.2
20260506161336 54 320 3.0 7.0 0.00 0.00 0.00 40 1016.2
20260506160818 54 323 2.0 5.0 0.00 0.00 0.00 41 1016.1
20260506160322 54 360 2.0 6.0 0.00 0.00 0.00 40 1015.9
20260506155826 54 360 2.0 6.0 0.00 0.00 0.00 40 1016.1
20260506155348 54 360 2.0 4.0 0.00 0.00 0.00 41 1016.2
20260506154829 54 360 2.0 4.0 0.00 0.00 0.00 38 1016.1
20260506154331 53 360 1.0 4.0 0.00 0.00 0.00 43 1016.2
20260506153834 53 360 1.0 7.0 0.00 0.00 0.00 40 1016.2
20260506153337 53 355 1.0 11.0 0.00 0.00 0.00 39 1016.1
20260506152819 52 304 2.0 11.0 0.00 0.00 0.00 40 1016.1
20260506152321 52 289 2.0 6.0 0.00 0.00 0.00 41 1016.1
20260506151824 51 287 2.0 5.0 0.00 0.00 0.00 41 1016.1
20260506151322 51 355 2.0 8.0 0.00 0.00 0.00 45 1016.1
20260506150827 51 273 2.0 8.0 0.00 0.00 0.00 43 1016.1
20260506150333 51 300 1.0 5.0 0.00 0.00 0.00 46 1016.1
20260506145835 51 308 2.0 5.0 0.00 0.00 0.00 44 1016.0
20260506145317 50 360 0.0 4.0 0.00 0.00 0.00 47 1016.1
20260506144821 50 360 2.0 4.0 0.00 0.00 0.00 45 1016.0
20260506144324 50 360 2.0 5.0 0.00 0.00 0.00 47 1016.0
20260506143826 50 360 2.0 5.0 0.00 0.00 0.00 45 1016.0
20260506143329 49 360 1.0 3.0 0.00 0.00 0.00 48 1016.0
20260506142831 48 360 1.0 3.0 0.00 0.00 0.00 51 1016.0
20260506142334 48 360 1.0 3.0 0.00 0.00 0.00 55 1016.0
20260506141836 48 360 1.0 3.0 0.00 0.00 0.00 52 1016.0
20260506141319 48 360 1.0 3.0 0.00 0.00 0.00 54 1015.8
20260506140822 48 360 1.0 3.0 0.00 0.00 0.00 54 1015.8
20260506140324 47 360 1.0 5.0 0.00 0.00 0.00 55 1015.9
20260506135823 47 360 1.0 5.0 0.00 0.00 0.00 56 1015.8
20260506135323 47 360 1.0 2.0 0.00 0.00 0.00 57 1015.8
20260506134827 47 360 0.0 3.0 0.00 0.00 0.00 59 1015.7
20260506134330 47 360 1.0 3.0 0.00 0.00 0.00 61 1015.8
20260506133832 46 360 1.0 3.0 0.00 0.00 0.00 60 1015.8
20260506133332 46 360 0.0 3.0 0.00 0.00 0.00 59 1015.7
20260506132834 46 360 1.0 2.0 0.00 0.00 0.00 60 1015.7
20260506132336 45 360 1.0 2.0 0.00 0.00 0.00 62 1015.7
20260506131838 45 360 0.0 2.0 0.00 0.00 0.00 61 1015.7
20260506131339 45 360 0.0 3.0 0.00 0.00 0.00 62 1015.6
20260506130845 45 360 1.0 3.0 0.00 0.00 0.00 62 1015.7
20260506130324 45 360 0.0 3.0 0.00 0.00 0.00 64 1015.7
20260506125828 44 360 1.0 3.0 0.00 0.00 0.00 62 1015.6
20260506125328 44 360 0.0 2.0 0.00 0.00 0.00 64 1015.5
20260506124938 44 360 0.0 2.0 0.00 0.00 0.00 64 1015.3
20260506124326 44 360 0.0 2.0 0.00 0.00 0.00 64 1015.3
20260506123828 44 360 1.0 2.0 0.00 0.00 0.00 63 1015.2
20260506123333 44 360 0.0 2.0 0.00 0.00 0.00 65 1015.2
20260506122836 44 360 0.0 3.0 0.00 0.00 0.00 65 1015.0
20260506122319 43 360 1.0 2.0 0.00 0.00 0.00 65 1014.9
20260506121843 43 360 0.0 2.0 0.00 0.00 0.00 67 1014.9
20260506121325 43 360 0.0 2.0 0.00 0.00 0.00 67 1014.7
20260506120829 43 360 0.0 3.0 0.00 0.00 0.00 71 1014.6
20260506120333 42 360 0.0 3.0 0.00 0.00 0.00 71 1014.5
20260506115854 41 360 0.0 1.0 0.00 0.00 0.00 71 1014.5
20260506115337 41 360 0.0 3.0 0.00 0.00 0.00 76 1014.3
20260506114840 40 360 0.0 3.0 0.00 0.00 0.00 78 1014.2
20260506114322 39 360 0.0 1.0 0.00 0.00 0.00 83 1014.2
20260506113824 38 360 0.0 1.0 0.00 0.00 0.00 87 1014.1
20260506113348 38 360 0.0 1.0 0.00 0.00 0.00 86 1013.9
20260506112830 38 360 0.0 1.0 0.00 0.00 0.00 87 1013.8
20260506112357 38 360 0.0 0.0 0.00 0.00 0.00 87 1013.6
20260506111838 38 360 0.0 0.0 0.00 0.00 0.00 86 1013.4
20260506111332 38 360 0.0 0.0 0.00 0.00 0.00 86 1013.3
20260506110830 38 360 0.0 0.0 0.00 0.00 0.00 86 1013.0
20260506110331 38 360 0.0 0.0 0.00 0.00 0.00 85 1013.1
20260506105835 38 360 0.0 0.0 0.00 0.00 0.00 85 1013.0
20260506105317 38 360 0.0 0.0 0.00 0.00 0.00 85 1013.1
20260506104840 38 360 0.0 0.0 0.00 0.00 0.00 85 1013.0
20260506104319 38 360 0.0 0.0 0.00 0.00 0.00 84 1012.9
20260506103844 38 360 0.0 0.0 0.00 0.00 0.00 84 1012.9
20260506103325 38 360 0.0 0.0 0.00 0.00 0.00 84 1012.9
20260506102829 39 360 0.0 0.0 0.00 0.00 0.00 83 1013.1
20260506102330 39 360 0.0 0.0 0.00 0.00 0.00 83 1013.0
20260506101833 39 360 0.0 0.0 0.00 0.00 0.00 83 1013.0
20260506101337 39 360 0.0 0.0 0.00 0.00 0.00 82 1013.1
20260506100818 39 360 0.0 0.0 0.00 0.00 0.00 82 1013.1
20260506100337 40 360 0.0 0.0 0.00 0.00 0.00 81 1013.1
20260506095820 40 360 0.0 0.0 0.00 0.00 0.00 81 1013.1
20260506095325 40 360 0.0 0.0 0.00 0.00 0.00 81 1013.0
20260506094827 40 360 0.0 0.0 0.00 0.00 0.00 81 1013.0
20260506094331 40 360 0.0 0.0 0.00 0.00 0.00 80 1012.8
20260506093834 41 360 0.0 0.0 0.00 0.00 0.00 80 1012.8
20260506093336 41 360 0.0 0.0 0.00 0.00 0.00 80 1012.8
20260506092817 41 360 0.0 0.0 0.00 0.00 0.00 79 1012.8
20260506092320 41 360 0.0 0.0 0.00 0.00 0.00 79 1012.8
20260506091823 41 360 0.0 0.0 0.00 0.00 0.00 78 1012.8
20260506091327 41 360 0.0 0.0 0.00 0.00 0.00 78 1012.7
20260506090830 42 360 0.0 0.0 0.00 0.00 0.00 78 1012.7
20260506090355 42 360 0.0 0.0 0.00 0.00 0.00 78 1012.6
20260506085853 42 360 0.0 0.0 0.00 0.00 0.00 78 1012.6
20260506085335 42 360 0.0 0.0 0.00 0.00 0.00 78 1012.5
20260506084818 42 360 0.0 0.0 0.00 0.00 0.00 77 1012.5
20260506084321 42 360 0.0 0.0 0.00 0.00 0.00 78 1012.5
20260506083847 42 360 0.0 0.0 0.00 0.00 0.00 78 1012.5
20260506083329 42 360 0.0 0.0 0.00 0.00 0.00 78 1012.6
20260506082832 42 360 0.0 0.0 0.00 0.00 0.00 79 1012.5
20260506082334 43 360 0.0 0.0 0.00 0.00 0.00 78 1012.4
20260506081833 43 360 0.0 0.0 0.00 0.00 0.00 78 1012.4
20260506081337 43 360 0.0 0.0 0.00 0.00 0.00 78 1012.4
20260506080819 43 360 0.0 0.0 0.00 0.00 0.00 76 1012.5
20260506080321 43 360 0.0 0.0 0.00 0.00 0.00 77 1012.5
20260506073320 44 360 0.0 0.0 0.00 0.00 0.00 74 1012.5
20260506072822 44 360 0.0 0.0 0.00 0.00 0.00 73 1012.5
20260506072324 44 360 0.0 0.0 0.00 0.00 0.00 72 1012.4
20260506071828 44 360 0.0 0.0 0.00 0.00 0.00 73 1012.5
20260506071331 44 360 0.0 0.0 0.00 0.00 0.00 70 1012.5
20260506070833 44 360 0.0 0.0 0.00 0.00 0.00 69 1012.3
20260506070337 44 360 0.0 0.0 0.00 0.00 0.00 68 1012.3
20260506062333 45 360 0.0 0.0 0.00 0.00 0.00 62 1012.0
20260506061836 46 360 0.0 0.0 0.00 0.00 0.00 61 1012.1
20260506061338 46 360 0.0 0.0 0.00 0.00 0.00 62 1012.1
20260506060819 46 360 0.0 0.0 0.00 0.00 0.00 61 1012.0
20260506060343 46 360 0.0 0.0 0.00 0.00 0.00 61 1012.0
20260506051324 49 360 0.0 0.0 0.00 0.00 0.00 52 1011.6
20260506050828 49 360 0.0 0.0 0.00 0.00 0.00 53 1011.6
20260506050331 49 360 0.0 0.0 0.00 0.00 0.00 53 1011.4
20260506044832 50 360 0.0 1.0 0.00 0.00 0.00 55 1011.4
20260506044334 50 360 0.0 0.0 0.00 0.00 0.00 55 1011.3
20260506043837 50 360 0.0 0.0 0.00 0.00 0.00 54 1011.2
20260506043401 50 360 0.0 0.0 0.00 0.00 0.00 54 1011.1
20260506042842 50 360 0.0 0.0 0.00 0.00 0.00 55 1010.8
20260506042324 50 360 0.0 1.0 0.00 0.00 0.00 56 1010.8
20260506041828 50 360 0.0 1.0 0.00 0.00 0.00 54 1011.0
20260506041332 50 360 0.0 1.0 0.00 0.00 0.00 56 1011.0
20260506040856 50 360 0.0 0.0 0.00 0.00 0.00 58 1010.9
20260506040334 51 360 0.0 0.0 0.00 0.00 0.00 61 1011.0
20260506035835 51 360 0.0 0.0 0.00 0.00 0.00 62 1010.8
20260506035317 51 360 0.0 0.0 0.00 0.00 0.00 61 1010.9
20260506034821 51 360 0.0 0.0 0.00 0.00 0.00 61 1010.9
20260506034323 51 360 0.0 0.0 0.00 0.00 0.00 62 1010.8
20260506033826 51 360 0.0 0.0 0.00 0.00 0.00 62 1010.8
20260506033328 51 360 0.0 1.0 0.00 0.00 0.00 64 1010.8
20260506032853 51 360 0.0 2.0 0.00 0.00 0.00 63 1010.7
20260506032333 51 360 0.0 2.0 0.00 0.00 0.00 61 1010.6
20260506031836 52 360 0.0 0.0 0.00 0.00 0.00 61 1010.6
20260506031322 52 360 0.0 2.0 0.00 0.00 0.00 58 1010.6
20260506030850 51 360 0.0 2.0 0.00 0.00 0.00 58 1010.6
20260506030350 51 360 0.0 2.0 0.00 0.00 0.00 58 1010.6
20260506025834 51 360 0.0 2.0 0.00 0.00 0.00 61 1010.4
20260506025337 51 360 0.0 1.0 0.00 0.00 0.00 58 1010.3
20260506024817 51 360 0.0 1.0 0.00 0.00 0.00 59 1010.3
20260506024321 51 360 0.0 1.0 0.00 0.00 0.00 58 1010.3
20260506023844 51 360 0.0 1.0 0.00 0.00 0.00 58 1010.2
20260506023327 51 360 0.0 1.0 0.00 0.00 0.00 60 1009.9
20260506022833 51 360 0.0 1.0 0.00 0.00 0.00 59 1010.0
20260506022336 51 360 0.0 1.0 0.00 0.00 0.00 63 1009.8
20260506021819 51 360 0.0 1.0 0.00 0.00 0.00 60 1009.9
20260506021323 51 360 0.0 1.0 0.00 0.00 0.00 63 1009.7
20260506020826 51 360 0.0 1.0 0.00 0.00 0.00 62 1009.7
20260506020326 51 360 0.0 1.0 0.00 0.00 0.00 61 1009.4
20260506015843 52 360 0.0 1.0 0.00 0.00 0.00 61 1009.5
20260506015324 52 360 0.0 1.0 0.00 0.00 0.00 62 1009.4
20260506014827 52 360 0.0 0.0 0.00 0.00 0.00 58 1009.4
20260506014330 52 360 0.0 0.0 0.00 0.00 0.00 57 1009.4
20260506013833 52 360 0.0 0.0 0.00 0.00 0.00 58 1009.2
20260506013337 53 360 0.0 0.0 0.00 0.00 0.00 57 1009.3
20260506012820 53 360 0.0 0.0 0.00 0.00 0.00 56 1009.2
20260506012322 53 360 0.0 0.0 0.00 0.00 0.00 55 1009.2
20260506011827 54 360 0.0 0.0 0.00 0.00 0.00 58 1009.2
20260506011330 54 360 0.0 0.0 0.00 0.00 0.00 56 1009.2
20260506010832 54 360 0.0 0.0 0.00 0.00 0.00 53 1009.1
20260506010337 54 360 0.0 0.0 0.00 0.00 0.00 50 1009.0
20260506005841 55 360 0.0 0.0 0.00 0.00 0.00 51 1009.1
20260506005318 55 94 0.0 0.0 0.00 0.00 0.00 50 1009.1
20260506004821 55 94 0.0 0.0 0.00 0.00 0.00 48 1009.0
20260506004325 55 94 0.0 0.0 0.00 0.00 0.00 47 1009.1
20260506003830 56 94 0.0 0.0 0.00 0.00 0.00 46 1009.0
20260506003334 56 95 0.0 0.0 0.00 0.00 0.00 45 1008.9
20260506002816 56 94 0.0 1.0 0.00 0.00 0.00 46 1008.9
20260506002358 56 94 0.0 1.0 0.00 0.02 0.00 44 1008.8
20260506001818 57 197 0.0 1.0 0.00 0.02 0.00 44 1008.9
20260506001321 57 223 0.0 1.0 0.00 0.02 0.00 41 1008.9
20260506000843 57 96 0.0 1.0 0.00 0.02 0.00 45 1008.9
20260506000326 57 96 0.0 1.0 0.00 0.02 0.00 44 1009.0
20260505235831 57 230 0.0 1.0 0.00 0.02 0.00 45 1008.9
20260505235330 57 181 0.0 1.0 0.00 0.02 0.00 42 1008.9
20260505234834 57 333 0.0 1.0 0.00 0.02 0.00 43 1008.9
20260505234334 57 158 0.0 1.0 0.00 0.02 0.00 51 1009.0
20260505233817 57 195 0.0 0.0 0.00 0.02 0.00 46 1008.9
20260505233320 57 195 0.0 1.0 0.00 0.02 0.00 45 1008.8
20260505232823 57 195 0.0 1.0 0.00 0.02 0.00 41 1008.8
20260505232328 57 132 0.0 1.0 0.00 0.02 0.00 42 1008.8
20260505231826 57 200 0.0 1.0 0.00 0.02 0.00 40 1008.9
20260505231331 57 201 0.0 1.0 0.00 0.02 0.00 45 1008.8
20260505230854 57 201 0.0 1.0 0.00 0.02 0.00 39 1008.9
20260505230336 57 201 0.0 1.0 0.00 0.02 0.00 42 1009.0
20260505225840 57 229 0.0 1.0 0.00 0.02 0.00 39 1009.1
20260505225323 57 200 0.0 4.0 0.00 0.02 0.00 39 1009.1
20260505224823 57 238 0.0 4.0 0.00 0.02 0.00 39 1009.2
20260505224327 57 246 0.0 2.0 0.00 0.02 0.00 41 1009.3
20260505223827 57 235 1.0 2.0 0.00 0.02 0.00 39 1009.3
20260505223353 57 256 0.0 3.0 0.00 0.02 0.00 40 1009.4
20260505222854 57 233 1.0 3.0 0.00 0.02 0.00 40 1009.3
20260505222317 57 239 1.0 3.0 0.00 0.05 0.00 40 1009.4
20260505221819 57 351 0.0 2.0 0.00 0.05 0.00 43 1009.4
20260505221341 57 355 0.0 2.0 0.00 0.05 0.00 39 1009.4
20260505220820 57 225 0.0 5.0 0.00 0.05 0.00 42 1009.5
20260505220325 57 310 1.0 5.0 0.00 0.05 0.00 39 1009.5
20260505215846 57 50 1.0 4.0 0.00 0.05 0.00 42 1009.5
20260505215349 57 234 0.0 5.0 0.00 0.05 0.00 39 1009.6
20260505214831 57 235 1.0 5.0 0.00 0.05 0.00 39 1009.8
20260505214333 57 186 2.0 4.0 0.00 0.05 0.00 40 1009.7
20260505213817 57 316 0.0 3.0 0.00 0.05 0.00 45 1009.6
20260505213320 57 306 1.0 3.0 0.00 0.05 0.00 39 1009.7
20260505212824 57 194 0.0 3.0 0.00 0.05 0.00 41 1009.7
20260505212329 56 231 0.0 5.0 0.00 0.05 0.00 40 1009.8
20260505211835 56 248 1.0 5.0 0.00 0.05 0.00 40 1009.9
20260505211337 56 253 1.0 4.0 0.00 0.05 0.00 41 1009.9